Location: Poughquag
(41.6090°N, 73.6820°W)
Time: 19:08:34
(UTC-04:00)

JY1SAT - Pass Details

Date: 13 September 2024
Orbit: 527 x 537 km, 97.5° (Epoch: 10 October)

Event Time Altitude Azimuth Distance (km) Brightness Sun altitude
Exits shadow 21:24:17 19° 16° (NNE) 1,295 ? -25.3°
Drops below altitude 10° 21:25:39 10° 5° (N) 1,791 ? -25.5°
Sets 21:27:53 0° 357° (N) 2,690 ? -25.8°
